| time (UTC) | temp F | wind direction | speed MPH | gust MPH | rain 1hr in | rain 24hr in | rain mn in | humidity % | barometer mb |
| 20260509185448 | 62 | 104 | 2.0 | 9.0 | 0.00 | 0.04 | 0.04 | 34 | 1009.1 |
| 20260509184942 | 62 | 29 | 2.0 | 8.0 | 0.00 | 0.04 | 0.04 | 34 | 1009.0 |
| 20260509184436 | 62 | 207 | 1.0 | 8.0 | 0.00 | 0.04 | 0.04 | 36 | 1009.0 |
| 20260509183930 | 61 | 153 | 1.0 | 6.0 | 0.00 | 0.04 | 0.04 | 37 | 1008.9 |
| 20260509183424 | 61 | 339 | 1.0 | 7.0 | 0.00 | 0.04 | 0.04 | 36 | 1008.9 |
| 20260509182918 | 61 | 335 | 1.0 | 9.0 | 0.00 | 0.04 | 0.04 | 37 | 1008.9 |
| 20260509182643 | 61 | 8 | 2.0 | 9.0 | 0.00 | 0.04 | 0.04 | 35 | 1008.8 |
| 20260509181906 | 61 | 0 | 3.0 | 9.0 | 0.00 | 0.04 | 0.04 | 39 | 1008.9 |
| 20260509181632 | 61 | 221 | 2.0 | 9.0 | 0.00 | 0.04 | 0.04 | 41 | 1008.6 |
| 20260509180854 | 61 | 302 | 1.0 | 8.0 | 0.00 | 0.04 | 0.04 | 41 | 1008.8 |
| 20260509180347 | 60 | 347 | 1.0 | 5.0 | 0.00 | 0.04 | 0.04 | 42 | 1008.9 |
| 20260509175842 | 60 | 345 | 2.0 | 6.0 | 0.00 | 0.04 | 0.04 | 43 | 1008.9 |
| 20260509175336 | 60 | 78 | 2.0 | 7.0 | 0.00 | 0.04 | 0.04 | 39 | 1008.9 |
| 20260509175102 | 60 | 0 | 2.0 | 8.0 | 0.00 | 0.04 | 0.04 | 41 | 1008.8 |
| 20260509174324 | 60 | 122 | 1.0 | 8.0 | 0.00 | 0.04 | 0.04 | 44 | 1008.6 |
| 20260509173818 | 60 | 330 | 1.0 | 7.0 | 0.00 | 0.04 | 0.04 | 44 | 1008.7 |
| 20260509173312 | 59 | 197 | 1.0 | 7.0 | 0.00 | 0.04 | 0.04 | 46 | 1008.6 |
| 20260509173043 | 59 | 86 | 1.0 | 7.0 | 0.00 | 0.04 | 0.04 | 43 | 1008.6 |
| 20260509172545 | 59 | 17 | 1.0 | 7.0 | 0.00 | 0.04 | 0.04 | 40 | 1008.6 |
| 20260509171813 | 59 | 343 | 1.0 | 6.0 | 0.00 | 0.04 | 0.04 | 49 | 1008.6 |
| 20260509171312 | 58 | 149 | 1.0 | 5.0 | 0.00 | 0.04 | 0.04 | 48 | 1008.5 |
| 20260509170811 | 58 | 302 | 1.0 | 6.0 | 0.00 | 0.04 | 0.04 | 50 | 1008.5 |
| 20260509170308 | 58 | 80 | 1.0 | 8.0 | 0.00 | 0.04 | 0.04 | 48 | 1008.3 |
| 20260509165809 | 57 | 106 | 1.0 | 8.0 | 0.00 | 0.04 | 0.04 | 49 | 1008.3 |
| 20260509165540 | 58 | 339 | 1.0 | 6.0 | 0.00 | 0.04 | 0.04 | 46 | 1008.3 |
| 20260509164809 | 58 | 352 | 1.0 | 5.0 | 0.00 | 0.04 | 0.04 | 45 | 1008.3 |
| 20260509164542 | 57 | 22 | 1.0 | 4.0 | 0.00 | 0.04 | 0.04 | 50 | 1008.3 |
| 20260509163810 | 57 | 25 | 1.0 | 4.0 | 0.00 | 0.04 | 0.04 | 45 | 1008.3 |
| 20260509163309 | 56 | 27 | 1.0 | 5.0 | 0.00 | 0.04 | 0.04 | 47 | 1008.2 |
| 20260509162811 | 56 | 14 | 1.0 | 5.0 | 0.00 | 0.04 | 0.04 | 50 | 1008.1 |
| 20260509162312 | 56 | 43 | 1.0 | 6.0 | 0.00 | 0.04 | 0.04 | 48 | 1008.1 |
| 20260509161811 | 56 | 340 | 1.0 | 6.0 | 0.00 | 0.04 | 0.04 | 54 | 1008.0 |
| 20260509161544 | 55 | 135 | 1.0 | 5.0 | 0.00 | 0.04 | 0.04 | 52 | 1008.0 |
| 20260509160807 | 55 | 66 | 1.0 | 6.0 | 0.00 | 0.04 | 0.04 | 53 | 1008.0 |
| 20260509160532 | 56 | 4 | 1.0 | 6.0 | 0.00 | 0.04 | 0.04 | 53 | 1007.8 |
| 20260509155754 | 56 | 351 | 1.0 | 5.0 | 0.00 | 0.04 | 0.04 | 50 | 1007.7 |
| 20260509155249 | 56 | 91 | 1.0 | 5.0 | 0.00 | 0.04 | 0.04 | 57 | 1007.7 |
| 20260509154742 | 56 | 131 | 1.0 | 5.0 | 0.00 | 0.04 | 0.04 | 53 | 1007.6 |
| 20260509154237 | 56 | 311 | 1.0 | 4.0 | 0.00 | 0.04 | 0.04 | 56 | 1007.5 |
| 20260509154001 | 56 | 105 | 1.0 | 6.0 | 0.00 | 0.04 | 0.04 | 54 | 1007.4 |
| 20260509153458 | 56 | 356 | 1.0 | 8.0 | 0.00 | 0.04 | 0.04 | 52 | 1007.4 |
| 20260509152719 | 57 | 9 | 1.0 | 8.0 | 0.00 | 0.04 | 0.04 | 55 | 1007.3 |
| 20260509152213 | 56 | 133 | 1.0 | 5.0 | 0.00 | 0.04 | 0.04 | 59 | 1007.3 |
| 20260509151707 | 56 | 325 | 1.0 | 5.0 | 0.00 | 0.04 | 0.04 | 60 | 1007.2 |
| 20260509151438 | 55 | 105 | 1.0 | 4.0 | 0.00 | 0.04 | 0.04 | 62 | 1007.0 |
| 20260509151201 | 55 | 342 | 1.0 | 4.0 | 0.00 | 0.04 | 0.04 | 63 | 1007.0 |
| 20260509150148 | 54 | 27 | 1.0 | 7.0 | 0.00 | 0.04 | 0.04 | 62 | 1006.9 |
| 20260509145642 | 54 | 181 | 1.0 | 7.0 | 0.00 | 0.04 | 0.04 | 60 | 1006.9 |
| 20260509145137 | 54 | 58 | 1.0 | 4.0 | 0.00 | 0.04 | 0.04 | 64 | 1006.7 |
| 20260509144631 | 53 | 345 | 1.0 | 4.0 | 0.00 | 0.04 | 0.04 | 64 | 1006.7 |
| 20260509144355 | 53 | 356 | 1.0 | 5.0 | 0.00 | 0.04 | 0.04 | 65 | 1006.7 |
| 20260509143850 | 53 | 345 | 1.0 | 5.0 | 0.00 | 0.04 | 0.04 | 66 | 1006.6 |
| 20260509143113 | 52 | 20 | 1.0 | 4.0 | 0.00 | 0.04 | 0.04 | 68 | 1006.6 |
| 20260509142607 | 52 | 345 | 1.0 | 6.0 | 0.00 | 0.04 | 0.04 | 71 | 1006.5 |
| 20260509142100 | 51 | 356 | 2.0 | 6.0 | 0.00 | 0.04 | 0.04 | 71 | 1006.5 |
| 20260509141825 | 51 | 9 | 2.0 | 7.0 | 0.00 | 0.04 | 0.04 | 72 | 1006.4 |
| 20260509141046 | 50 | 356 | 2.0 | 8.0 | 0.00 | 0.04 | 0.04 | 75 | 1006.4 |
| 20260509140540 | 50 | 347 | 2.0 | 8.0 | 0.00 | 0.04 | 0.04 | 77 | 1006.4 |
| 20260509140039 | 50 | 13 | 2.0 | 7.0 | 0.00 | 0.04 | 0.04 | 80 | 1006.4 |
| 20260509135538 | 49 | 356 | 1.0 | 6.0 | 0.00 | 0.04 | 0.04 | 84 | 1006.3 |
| 20260509135041 | 49 | 13 | 1.0 | 4.0 | 0.00 | 0.04 | 0.04 | 91 | 1006.2 |
| 20260509134539 | 48 | 347 | 1.0 | 4.0 | 0.00 | 0.04 | 0.04 | 94 | 1006.2 |
| 20260509134039 | 48 | 352 | 1.0 | 4.0 | 0.00 | 0.04 | 0.04 | 96 | 1006.1 |
| 20260509133540 | 48 | 337 | 1.0 | 4.0 | 0.00 | 0.04 | 0.04 | 96 | 1006.1 |
| 20260509133039 | 48 | 74 | 0.0 | 4.0 | 0.00 | 0.04 | 0.04 | 96 | 1006.0 |
| 20260509132808 | 48 | 23 | 0.0 | 2.0 | 0.00 | 0.04 | 0.04 | 96 | 1006.0 |
| 20260509132659 | 47 | 32 | 0.0 | 3.0 | 0.00 | 0.04 | 0.04 | 96 | 1005.9 |
| 20260509131534 | 47 | 105 | 0.0 | 3.0 | 0.00 | 0.04 | 0.04 | 96 | 1005.8 |
| 20260509131032 | 47 | 110 | 0.0 | 3.0 | 0.00 | 0.04 | 0.04 | 96 | 1005.7 |
| 20260509130530 | 47 | 107 | 0.0 | 1.0 | 0.00 | 0.04 | 0.04 | 97 | 1005.5 |
| 20260509130032 | 47 | 351 | 0.0 | 1.0 | 0.00 | 0.04 | 0.04 | 97 | 1005.4 |
| 20260509125529 | 47 | 107 | 0.0 | 1.0 | 0.00 | 0.04 | 0.04 | 96 | 1005.3 |
| 20260509125031 | 47 | 127 | 0.0 | 1.0 | 0.00 | 0.04 | 0.04 | 96 | 1005.3 |
| 20260509124530 | 47 | 56 | 0.0 | 1.0 | 0.00 | 0.04 | 0.04 | 96 | 1005.2 |
| 20260509124028 | 47 | 100 | 0.0 | 1.0 | 0.00 | 0.04 | 0.04 | 97 | 1005.2 |
| 20260509123528 | 47 | 205 | 0.0 | 2.0 | 0.00 | 0.04 | 0.04 | 97 | 1005.2 |
| 20260509123022 | 47 | 293 | 0.0 | 2.0 | 0.00 | 0.04 | 0.04 | 97 | 1005.1 |
| 20260509122516 | 47 | 23 | 0.0 | 1.0 | 0.00 | 0.04 | 0.04 | 97 | 1005.0 |
| 20260509122009 | 47 | 75 | 0.0 | 1.0 | 0.00 | 0.04 | 0.04 | 97 | 1004.8 |
| 20260509121504 | 47 | 116 | 0.0 | 2.0 | 0.00 | 0.04 | 0.04 | 96 | 1004.8 |
| 20260509120958 | 46 | 75 | 0.0 | 2.0 | 0.00 | 0.04 | 0.04 | 96 | 1004.7 |
| 20260509120454 | 46 | 114 | 0.0 | 3.0 | 0.00 | 0.04 | 0.04 | 96 | 1004.7 |
| 20260509115954 | 46 | 131 | 0.0 | 3.0 | 0.00 | 0.04 | 0.04 | 96 | 1004.6 |
| 20260509115723 | 47 | 160 | 0.0 | 3.0 | 0.00 | 0.04 | 0.04 | 96 | 1004.5 |
| 20260509115227 | 47 | 142 | 0.0 | 2.0 | 0.00 | 0.04 | 0.04 | 96 | 1004.4 |
| 20260509114454 | 47 | 162 | 0.0 | 2.0 | 0.00 | 0.04 | 0.04 | 96 | 1004.2 |
| 20260509113953 | 47 | 96 | 0.0 | 1.0 | 0.00 | 0.04 | 0.04 | 96 | 1004.2 |
| 20260509113454 | 46 | 155 | 0.0 | 1.0 | 0.00 | 0.04 | 0.04 | 96 | 1004.1 |
| 20260509112954 | 46 | 162 | 0.0 | 0.0 | 0.00 | 0.04 | 0.04 | 96 | 1004.0 |
| 20260509112457 | 46 | 162 | 0.0 | 0.0 | 0.01 | 0.04 | 0.04 | 96 | 1003.8 |
| 20260509112452 | 46 | 162 | 0.0 | 0.0 | 0.00 | 0.04 | 0.04 | 96 | 1003.9 |
| 20260509111454 | 46 | 162 | 0.0 | 0.0 | 0.01 | 0.04 | 0.04 | 95 | 1003.7 |
| 20260509110957 | 46 | 63 | 0.0 | 0.0 | 0.01 | 0.04 | 0.04 | 95 | 1003.5 |
| 20260509110451 | 46 | 62 | 0.0 | 0.0 | 0.02 | 0.04 | 0.04 | 95 | 1003.4 |
| 20260509105952 | 46 | 62 | 0.0 | 0.0 | 0.02 | 0.04 | 0.04 | 95 | 1003.3 |
| 20260509105452 | 47 | 64 | 0.0 | 0.0 | 0.02 | 0.04 | 0.04 | 95 | 1003.1 |
| 20260509105224 | 47 | 64 | 0.0 | 0.0 | 0.02 | 0.04 | 0.04 | 95 | 1003.1 |
| 20260509104451 | 47 | 63 | 0.0 | 0.0 | 0.02 | 0.04 | 0.04 | 95 | 1003.1 |
| 20260509103950 | 47 | 64 | 0.0 | 0.0 | 0.02 | 0.04 | 0.04 | 95 | 1003.1 |
| 20260509103452 | 47 | 63 | 0.0 | 0.0 | 0.03 | 0.04 | 0.04 | 95 | 1003.0 |
| 20260509102950 | 47 | 64 | 0.0 | 0.0 | 0.03 | 0.04 | 0.04 | 94 | 1002.9 |
| 20260509102450 | 47 | 63 | 0.0 | 0.0 | 0.03 | 0.04 | 0.04 | 94 | 1002.6 |
| 20260509101952 | 47 | 64 | 0.0 | 0.0 | 0.03 | 0.03 | 0.03 | 94 | 1003.0 |
| 20260509101720 | 47 | 315 | 0.0 | 0.0 | 0.03 | 0.03 | 0.03 | 94 | 1002.6 |
| 20260509100948 | 47 | 315 | 0.0 | 0.0 | 0.02 | 0.02 | 0.02 | 93 | 1002.7 |
| 20260509100722 | 47 | 314 | 0.0 | 0.0 | 0.02 | 0.02 | 0.02 | 93 | 1002.8 |
| 20260509095949 | 48 | 315 | 0.0 | 0.0 | 0.02 | 0.02 | 0.02 | 92 | 1002.7 |
| 20260509095449 | 48 | 314 | 0.0 | 0.0 | 0.02 | 0.02 | 0.02 | 92 | 1002.7 |
| 20260509094948 | 48 | 315 | 0.0 | 1.0 | 0.02 | 0.02 | 0.02 | 91 | 1002.6 |
| 20260509094719 | 48 | 315 | 0.0 | 1.0 | 0.02 | 0.02 | 0.02 | 90 | 1002.6 |
| 20260509093950 | 49 | 136 | 0.0 | 1.0 | 0.02 | 0.02 | 0.02 | 89 | 1002.7 |
| 20260509093450 | 49 | 140 | 0.0 | 1.0 | 0.01 | 0.01 | 0.01 | 86 | 1002.9 |
| 20260509093215 | 50 | 57 | 0.0 | 1.0 | 0.01 | 0.01 | 0.01 | 84 | 1003.0 |
| 20260509092445 | 50 | 68 | 0.0 | 4.0 | 0.01 | 0.01 | 0.01 | 82 | 1003.1 |
| 20260509091945 | 51 | 79 | 0.0 | 4.0 | 0.00 | 0.00 | 0.00 | 77 | 1003.2 |
| 20260509091445 | 52 | 1 | 0.0 | 2.0 | 0.00 | 0.00 | 0.00 | 73 | 1003.2 |
| 20260509090945 | 52 | 351 | 0.0 | 1.0 | 0.00 | 0.00 | 0.00 | 70 | 1003.1 |
| 20260509090446 | 52 | 16 | 0.0 | 1.0 | 0.00 | 0.00 | 0.00 | 67 | 1003.1 |
| 20260509085944 | 52 | 15 | 0.0 | 1.0 | 0.00 | 0.00 | 0.00 | 65 | 1002.8 |
| 20260509085444 | 52 | 15 | 0.0 | 1.0 | 0.00 | 0.00 | 0.00 | 64 | 1002.5 |
| 20260509084946 | 53 | 17 | 0.0 | 1.0 | 0.00 | 0.00 | 0.00 | 62 | 1002.6 |
| 20260509084442 | 53 | 18 | 0.0 | 2.0 | 0.00 | 0.00 | 0.00 | 62 | 1002.7 |
| 20260509083941 | 53 | 338 | 0.0 | 2.0 | 0.00 | 0.00 | 0.00 | 61 | 1002.8 |
| 20260509083712 | 53 | 50 | 0.0 | 2.0 | 0.00 | 0.00 | 0.00 | 60 | 1002.7 |
| 20260509082940 | 53 | 16 | 1.0 | 7.0 | 0.00 | 0.00 | 0.00 | 59 | 1002.7 |
| 20260509082440 | 53 | 25 | 1.0 | 7.0 | 0.00 | 0.00 | 0.00 | 59 | 1002.7 |
| 20260509081940 | 52 | 6 | 1.0 | 6.0 | 0.00 | 0.00 | 0.00 | 59 | 1002.7 |
| 20260509081442 | 52 | 39 | 1.0 | 6.0 | 0.00 | 0.00 | 0.00 | 60 | 1002.6 |
| 20260509080942 | 51 | 30 | 0.0 | 3.0 | 0.00 | 0.00 | 0.00 | 60 | 1002.6 |
| 20260509080442 | 50 | 321 | 0.0 | 4.0 | 0.00 | 0.00 | 0.00 | 60 | 1002.5 |
| 20260509075940 | 50 | 118 | 0.0 | 4.0 | 0.00 | 0.00 | 0.00 | 61 | 1002.5 |
| 20260509075440 | 49 | 187 | 0.0 | 1.0 | 0.00 | 0.00 | 0.00 | 61 | 1002.5 |
| 20260509074950 | 49 | 135 | 0.0 | 2.0 | 0.00 | 0.00 | 0.00 | 60 | 1002.4 |
| 20260509074941 | 49 | 136 | 0.0 | 1.0 | 0.00 | 0.00 | 0.00 | 62 | 1002.5 |
| 20260509073942 | 49 | 205 | 0.0 | 2.0 | 0.00 | 0.00 | 0.00 | 59 | 1002.2 |
| 20260509073440 | 49 | 126 | 0.0 | 2.0 | 0.00 | 0.00 | 0.00 | 61 | 1002.2 |
| 20260509073214 | 49 | 147 | 0.0 | 0.0 | 0.00 | 0.00 | 0.00 | 66 | 1002.0 |
| 20260509072447 | 49 | 147 | 0.0 | 0.0 | 0.00 | 0.00 | 0.00 | 61 | 1002.1 |
| 20260509072443 | 49 | 146 | 0.0 | 0.0 | 0.00 | 0.00 | 0.00 | 65 | 1002.0 |
| 20260509071444 | 49 | 147 | 0.0 | 0.0 | 0.00 | 0.00 | 0.00 | 61 | 1002.1 |
| 20260509070940 | 48 | 147 | 0.0 | 0.0 | 0.00 | 0.00 | 0.00 | 61 | 1002.0 |
| 20260509070442 | 48 | 146 | 0.0 | 0.0 | 0.00 | 0.00 | 0.00 | 63 | 1002.1 |
| 20260509065941 | 49 | 146 | 0.0 | 0.0 | 0.00 | 0.00 | 0.00 | 61 | 1002.1 |
| 20260509065441 | 49 | 147 | 0.0 | 0.0 | 0.00 | 0.00 | 0.00 | 59 | 1002.1 |
| 20260509064940 | 49 | 146 | 0.0 | 0.0 | 0.00 | 0.00 | 0.00 | 56 | 1002.2 |
| 20260509064713 | 49 | 146 | 0.0 | 0.0 | 0.00 | 0.00 | 0.00 | 55 | 1002.1 |
| 20260509063942 | 48 | 147 | 0.0 | 0.0 | 0.00 | 0.00 | 0.00 | 55 | 1002.2 |
| 20260509063441 | 48 | 146 | 0.0 | 0.0 | 0.00 | 0.00 | 0.00 | 57 | 1002.1 |
| 20260509062934 | 48 | 146 | 0.0 | 0.0 | 0.00 | 0.00 | 0.00 | 58 | 1002.1 |
| 20260509062428 | 48 | 147 | 0.0 | 0.0 | 0.00 | 0.00 | 0.00 | 58 | 1001.8 |
| 20260509061927 | 48 | 146 | 0.0 | 1.0 | 0.00 | 0.00 | 0.00 | 59 | 1002.1 |
| 20260509061429 | 48 | 146 | 0.0 | 1.0 | 0.00 | 0.00 | 0.00 | 59 | 1002.1 |
| 20260509060926 | 50 | 103 | 0.0 | 0.0 | 0.00 | 0.00 | 0.00 | 55 | 1002.1 |
| 20260509060428 | 50 | 103 | 0.0 | 0.0 | 0.00 | 0.00 | 0.00 | 50 | 1002.0 |
| 20260509055926 | 50 | 103 | 0.0 | 0.0 | 0.00 | 0.00 | 0.00 | 50 | 1001.9 |
| 20260509055429 | 50 | 103 | 0.0 | 0.0 | 0.00 | 0.00 | 0.00 | 49 | 1001.9 |
| 20260509055155 | 50 | 103 | 0.0 | 0.0 | 0.00 | 0.00 | 0.00 | 50 | 1002.0 |
| 20260509054420 | 50 | 103 | 0.0 | 0.0 | 0.00 | 0.00 | 0.00 | 50 | 1002.1 |
| 20260509053918 | 49 | 103 | 0.0 | 0.0 | 0.00 | 0.00 | 0.00 | 51 | 1002.2 |
| 20260509053415 | 49 | 103 | 0.0 | 0.0 | 0.00 | 0.00 | 0.00 | 52 | 1002.3 |
| 20260509052913 | 48 | 103 | 0.0 | 0.0 | 0.00 | 0.00 | 0.00 | 53 | 1002.4 |
| 20260509052410 | 49 | 103 | 0.0 | 0.0 | 0.00 | 0.00 | 0.00 | 53 | 1002.4 |
| 20260509052141 | 49 | 103 | 0.0 | 0.0 | 0.00 | 0.00 | 0.00 | 52 | 1002.5 |
| 20260509051409 | 49 | 103 | 0.0 | 0.0 | 0.00 | 0.00 | 0.00 | 51 | 1002.6 |
| 20260509050910 | 49 | 103 | 0.0 | 0.0 | 0.00 | 0.00 | 0.00 | 50 | 1002.5 |
| 20260509050406 | 49 | 103 | 0.0 | 0.0 | 0.00 | 0.00 | 0.00 | 50 | 1002.5 |
| 20260509045909 | 49 | 103 | 0.0 | 1.0 | 0.00 | 0.00 | 0.00 | 51 | 1002.4 |
| 20260509045408 | 48 | 103 | 0.0 | 0.0 | 0.00 | 0.00 | 0.00 | 51 | 1002.8 |
| 20260509045403 | 47 | 103 | 0.0 | 1.0 | 0.00 | 0.00 | 0.00 | 51 | 1002.6 |
| 20260509044350 | 48 | 103 | 0.0 | 0.0 | 0.00 | 0.00 | 0.00 | 51 | 1002.7 |
| 20260509043845 | 49 | 103 | 0.0 | 0.0 | 0.00 | 0.00 | 0.00 | 50 | 1002.8 |
| 20260509043339 | 49 | 103 | 0.0 | 0.0 | 0.00 | 0.00 | 0.00 | 49 | 1002.8 |
| 20260509043103 | 50 | 103 | 0.0 | 0.0 | 0.00 | 0.00 | 0.00 | 49 | 1002.9 |
| 20260509042326 | 50 | 103 | 0.0 | 0.0 | 0.00 | 0.00 | 0.00 | 49 | 1002.9 |
| 20260509041821 | 50 | 103 | 0.0 | 0.0 | 0.00 | 0.00 | 0.00 | 49 | 1002.9 |
| 20260509041314 | 50 | 103 | 0.0 | 0.0 | 0.00 | 0.00 | 0.00 | 49 | 1002.9 |
| 20260509040809 | 51 | 103 | 0.0 | 0.0 | 0.00 | 0.00 | 0.00 | 47 | 1002.9 |
| 20260509040534 | 51 | 129 | 0.0 | 1.0 | 0.00 | 0.00 | 0.00 | 47 | 1003.1 |
| 20260509035756 | 51 | 129 | 0.0 | 1.0 | 0.00 | 0.00 | 0.00 | 46 | 1003.1 |
| 20260509035522 | 52 | 129 | 0.0 | 2.0 | 0.00 | 0.00 | 0.00 | 47 | 1003.1 |
| 20260509034745 | 52 | 113 | 0.0 | 2.0 | 0.00 | 0.00 | 0.00 | 46 | 1003.1 |
| 20260509034239 | 52 | 194 | 0.0 | 0.0 | 0.00 | 0.00 | 0.00 | 46 | 1003.1 |
| 20260509033733 | 53 | 194 | 0.0 | 1.0 | 0.00 | 0.00 | 0.00 | 45 | 1003.0 |
| 20260509033227 | 53 | 194 | 0.0 | 1.0 | 0.00 | 0.00 | 0.00 | 44 | 1003.0 |
| 20260509032721 | 54 | 110 | 0.0 | 1.0 | 0.00 | 0.00 | 0.00 | 44 | 1002.9 |
| 20260509032446 | 54 | 201 | 0.0 | 1.0 | 0.00 | 0.00 | 0.00 | 44 | 1002.9 |
| 20260509031708 | 55 | 149 | 0.0 | 2.0 | 0.00 | 0.00 | 0.00 | 42 | 1003.0 |
| 20260509031202 | 55 | 225 | 0.0 | 2.0 | 0.00 | 0.00 | 0.00 | 41 | 1002.8 |
| 20260509030656 | 56 | 197 | 0.0 | 5.0 | 0.00 | 0.00 | 0.00 | 40 | 1002.9 |
| 20260509030151 | 56 | 103 | 0.0 | 5.0 | 0.00 | 0.00 | 0.00 | 41 | 1002.8 |
| 20260509025916 | 56 | 165 | 0.0 | 3.0 | 0.00 | 0.00 | 0.00 | 40 | 1002.7 |
| 20260509025139 | 57 | 257 | 0.0 | 3.0 | 0.00 | 0.00 | 0.00 | 40 | 1002.7 |
| 20260509024633 | 57 | 100 | 0.0 | 4.0 | 0.00 | 0.00 | 0.00 | 40 | 1002.7 |
| 20260509024127 | 58 | 329 | 0.0 | 4.0 | 0.00 | 0.00 | 0.00 | 40 | 1002.7 |
| 20260509023620 | 58 | 180 | 0.0 | 3.0 | 0.00 | 0.00 | 0.00 | 39 | 1002.7 |
| 20260509023345 | 58 | 133 | 0.0 | 3.0 | 0.00 | 0.00 | 0.00 | 39 | 1002.6 |
| 20260509022608 | 59 | 100 | 0.0 | 3.0 | 0.00 | 0.00 | 0.00 | 38 | 1002.5 |
| 20260509022102 | 59 | 130 | 1.0 | 5.0 | 0.00 | 0.00 | 0.00 | 39 | 1002.4 |
| 20260509021556 | 60 | 115 | 1.0 | 6.0 | 0.00 | 0.00 | 0.00 | 37 | 1002.3 |
| 20260509021050 | 60 | 11 | 1.0 | 6.0 | 0.00 | 0.00 | 0.00 | 36 | 1002.2 |
| 20260509020542 | 61 | 74 | 1.0 | 8.0 | 0.00 | 0.00 | 0.00 | 37 | 1002.1 |
| 20260509020306 | 61 | 12 | 2.0 | 12.0 | 0.00 | 0.00 | 0.00 | 37 | 1002.0 |
| 20260509015534 | 61 | 172 | 1.0 | 12.0 | 0.00 | 0.00 | 0.00 | 37 | 1001.9 |
| 20260509015020 | 60 | 72 | 0.0 | 4.0 | 0.00 | 0.00 | 0.00 | 39 | 1001.8 |
| 20260509014514 | 61 | 120 | 0.0 | 6.0 | 0.00 | 0.00 | 0.00 | 39 | 1001.5 |
| 20260509014008 | 62 | 91 | 1.0 | 6.0 | 0.00 | 0.00 | 0.00 | 38 | 1001.5 |
| 20260509013502 | 62 | 139 | 1.0 | 5.0 | 0.00 | 0.00 | 0.00 | 37 | 1001.5 |
| 20260509012955 | 62 | 307 | 1.0 | 5.0 | 0.00 | 0.00 | 0.00 | 36 | 1001.3 |
| 20260509012450 | 61 | 131 | 0.0 | 5.0 | 0.00 | 0.00 | 0.00 | 35 | 1001.2 |
| 20260509011944 | 62 | 197 | 0.0 | 3.0 | 0.00 | 0.00 | 0.00 | 36 | 1001.2 |
| 20260509011708 | 62 | 194 | 0.0 | 2.0 | 0.00 | 0.00 | 0.00 | 35 | 1001.1 |
| 20260509011205 | 63 | 168 | 0.0 | 2.0 | 0.00 | 0.00 | 0.00 | 35 | 1001.0 |
| 20260509010656 | 64 | 191 | 0.0 | 2.0 | 0.00 | 0.00 | 0.00 | 34 | 1001.0 |
| 20260509005921 | 64 | 276 | 0.0 | 3.0 | 0.00 | 0.00 | 0.00 | 35 | 1000.9 |
| 20260509005417 | 65 | 101 | 1.0 | 4.0 | 0.00 | 0.00 | 0.00 | 32 | 1001.0 |
| 20260509004908 | 66 | 137 | 1.0 | 4.0 | 0.00 | 0.00 | 0.00 | 32 | 1000.9 |
| 20260509004634 | 66 | 186 | 1.0 | 6.0 | 0.00 | 0.00 | 0.00 | 31 | 1000.9 |
| 20260509003855 | 66 | 108 | 2.0 | 6.0 | 0.00 | 0.00 | 0.00 | 30 | 1000.9 |
| 20260509003350 | 67 | 156 | 1.0 | 4.0 | 0.00 | 0.00 | 0.00 | 31 | 1000.8 |
| 20260509002844 | 67 | 238 | 1.0 | 6.0 | 0.00 | 0.00 | 0.00 | 29 | 1000.9 |
| 20260509002338 | 68 | 165 | 1.0 | 6.0 | 0.00 | 0.00 | 0.00 | 30 | 1000.8 |
| 20260509001832 | 69 | 134 | 1.0 | 5.0 | 0.00 | 0.00 | 0.00 | 28 | 1000.9 |
| 20260509001326 | 69 | 124 | 2.0 | 5.0 | 0.00 | 0.00 | 0.00 | 28 | 1000.8 |
| 20260509000820 | 70 | 153 | 3.0 | 7.0 | 0.00 | 0.00 | 0.00 | 27 | 1000.8 |
| 20260509000314 | 70 | 179 | 3.0 | 7.0 | 0.00 | 0.00 | 0.00 | 27 | 1000.8 |
| 20260508235808 | 70 | 152 | 3.0 | 7.0 | 0.00 | 0.00 | 0.00 | 28 | 1000.7 |
| 20260508235306 | 69 | 190 | 3.0 | 7.0 | 0.00 | 0.00 | 0.00 | 29 | 1000.8 |
| 20260508234756 | 69 | 239 | 3.0 | 9.0 | 0.00 | 0.00 | 0.00 | 28 | 1000.8 |
| 20260508234520 | 70 | 156 | 2.0 | 11.0 | 0.00 | 0.00 | 0.00 | 28 | 1000.9 |
| 20260508233743 | 70 | 206 | 1.0 | 7.0 | 0.00 | 0.00 | 0.00 | 29 | 1000.8 |
| 20260508233237 | 70 | 135 | 1.0 | 3.0 | 0.00 | 0.00 | 0.00 | 29 | 1000.9 |
| 20260508232732 | 70 | 164 | 1.0 | 2.0 | 0.00 | 0.00 | 0.00 | 31 | 1001.0 |
| 20260508232229 | 70 | 233 | 1.0 | 7.0 | 0.00 | 0.00 | 0.00 | 31 | 1001.0 |
| 20260508231728 | 70 | 193 | 2.0 | 7.0 | 0.00 | 0.00 | 0.00 | 32 | 1001.1 |
| 20260508231227 | 70 | 166 | 3.0 | 7.0 | 0.00 | 0.00 | 0.00 | 30 | 1001.0 |
| 20260508230729 | 70 | 118 | 3.0 | 7.0 | 0.00 | 0.00 | 0.00 | 27 | 1001.1 |
| 20260508230234 | 72 | 162 | 3.0 | 8.0 | 0.00 | 0.00 | 0.00 | 27 | 1001.2 |
| 20260508230226 | 71 | 169 | 2.0 | 6.0 | 0.00 | 0.00 | 0.00 | 27 | 1001.1 |
| 20260508225727 | 71 | 167 | 3.0 | 8.0 | 0.00 | 0.00 | 0.00 | 27 | 1001.1 |
| 20260508224726 | 73 | 150 | 2.0 | 6.0 | 0.00 | 0.00 | 0.00 | 28 | 1001.0 |
| 20260508224225 | 72 | 211 | 2.0 | 6.0 | 0.00 | 0.00 | 0.00 | 28 | 1001.1 |
| 20260508223959 | 72 | 119 | 2.0 | 7.0 | 0.00 | 0.00 | 0.00 | 29 | 1001.1 |
| 20260508223224 | 72 | 149 | 2.0 | 7.0 | 0.00 | 0.00 | 0.00 | 30 | 1001.3 |
| 20260508222723 | 73 | 211 | 2.0 | 8.0 | 0.00 | 0.00 | 0.00 | 28 | 1001.3 |
| 20260508222224 | 71 | 158 | 2.0 | 8.0 | 0.00 | 0.00 | 0.00 | 28 | 1001.3 |
| 20260508221954 | 71 | 138 | 1.0 | 7.0 | 0.00 | 0.00 | 0.00 | 26 | 1001.3 |
| 20260508221227 | 71 | 174 | 2.0 | 7.0 | 0.00 | 0.00 | 0.00 | 29 | 1001.4 |
| 20260508220723 | 71 | 142 | 4.0 | 8.0 | 0.00 | 0.00 | 0.00 | 29 | 1001.4 |
| 20260508220222 | 72 | 180 | 3.0 | 8.0 | 0.00 | 0.00 | 0.00 | 25 | 1001.4 |
| 20260508215724 | 72 | 136 | 2.0 | 7.0 | 0.00 | 0.00 | 0.00 | 29 | 1001.5 |
| 20260508215218 | 72 | 112 | 3.0 | 8.0 | 0.00 | 0.00 | 0.00 | 28 | 1001.5 |
| 20260508214712 | 72 | 169 | 4.0 | 7.0 | 0.00 | 0.00 | 0.00 | 26 | 1001.6 |
| 20260508214205 | 72 | 195 | 4.0 | 7.0 | 0.00 | 0.00 | 0.00 | 29 | 1001.8 |
| 20260508213700 | 73 | 146 | 4.0 | 9.0 | 0.00 | 0.00 | 0.00 | 26 | 1001.8 |
| 20260508213153 | 73 | 164 | 5.0 | 10.0 | 0.00 | 0.00 | 0.00 | 28 | 1001.9 |
| 20260508212648 | 73 | 137 | 6.0 | 11.0 | 0.00 | 0.00 | 0.00 | 25 | 1002.0 |
| 20260508212142 | 73 | 102 | 5.0 | 11.0 | 0.00 | 0.00 | 0.00 | 26 | 1002.0 |
| 20260508211908 | 74 | 154 | 5.0 | 11.0 | 0.00 | 0.00 | 0.00 | 25 | 1002.0 |
| 20260508211130 | 73 | 252 | 6.0 | 11.0 | 0.00 | 0.00 | 0.00 | 27 | 1002.0 |
| 20260508210854 | 72 | 198 | 5.0 | 11.0 | 0.00 | 0.00 | 0.00 | 28 | 1002.0 |
| 20260508210118 | 73 | 174 | 5.0 | 11.0 | 0.00 | 0.00 | 0.00 | 26 | 1002.2 |
| 20260508205618 | 73 | 174 | 6.0 | 12.0 | 0.00 | 0.00 | 0.00 | 28 | 1002.2 |
| 20260508205118 | 73 | 200 | 6.0 | 12.0 | 0.00 | 0.00 | 0.00 | 25 | 1002.3 |
| 20260508204618 | 72 | 165 | 5.0 | 9.0 | 0.00 | 0.00 | 0.00 | 26 | 1002.4 |
| 20260508204118 | 71 | 141 | 4.0 | 10.0 | 0.00 | 0.00 | 0.00 | 27 | 1002.6 |
| 20260508203618 | 70 | 208 | 3.0 | 10.0 | 0.00 | 0.00 | 0.00 | 28 | 1002.6 |
| 20260508203118 | 70 | 208 | 4.0 | 9.0 | 0.00 | 0.00 | 0.00 | 28 | 1002.7 |
| 20260508202618 | 72 | 297 | 4.0 | 9.0 | 0.00 | 0.00 | 0.00 | 28 | 1002.8 |
| 20260508202119 | 72 | 173 | 4.0 | 12.0 | 0.00 | 0.00 | 0.00 | 29 | 1002.8 |
| 20260508201616 | 71 | 157 | 6.0 | 12.0 | 0.00 | 0.00 | 0.00 | 29 | 1003.0 |
| 20260508201124 | 73 | 217 | 4.0 | 14.0 | 0.00 | 0.00 | 0.00 | 25 | 1003.1 |
| 20260508201118 | 72 | 177 | 6.0 | 14.0 | 0.00 | 0.00 | 0.00 | 26 | 1003.1 |
| 20260508200118 | 73 | 23 | 3.0 | 10.0 | 0.00 | 0.00 | 0.00 | 28 | 1003.2 |
| 20260508195617 | 73 | 217 | 4.0 | 10.0 | 0.00 | 0.00 | 0.00 | 26 | 1003.2 |
| 20260508195350 | 72 | 325 | 6.0 | 11.0 | 0.00 | 0.00 | 0.00 | 27 | 1003.2 |
| 20260508194617 | 72 | 142 | 5.0 | 11.0 | 0.00 | 0.00 | 0.00 | 28 | 1003.3 |
| 20260508194118 | 71 | 170 | 4.0 | 11.0 | 0.00 | 0.00 | 0.00 | 30 | 1003.4 |
| 20260508193612 | 71 | 139 | 3.0 | 7.0 | 0.00 | 0.00 | 0.00 | 26 | 1003.5 |
| 20260508193106 | 71 | 198 | 3.0 | 7.0 | 0.00 | 0.00 | 0.00 | 27 | 1003.6 |
| 20260508192604 | 71 | 293 | 4.0 | 9.0 | 0.00 | 0.00 | 0.00 | 27 | 1003.6 |
| 20260508192050 | 71 | 198 | 4.0 | 9.0 | 0.00 | 0.00 | 0.00 | 30 | 1003.8 |
| 20260508191543 | 70 | 167 | 4.0 | 9.0 | 0.00 | 0.00 | 0.00 | 31 | 1003.8 |
| 20260508191038 | 69 | 219 | 3.0 | 8.0 | 0.00 | 0.00 | 0.00 | 29 | 1003.9 |
| 20260508190532 | 69 | 141 | 2.0 | 8.0 | 0.00 | 0.00 | 0.00 | 30 | 1004.0 |
| 20260508190033 | 70 | 214 | 4.0 | 9.0 | 0.00 | 0.00 | 0.00 | 28 | 1004.0 |